Meteo pe oră la Bolshie Kurguzi

Astăzi, 9 Mai, Duminică

Timp Temperatura Precipitaţii Vânt Presiune Umiditate
00:00 +10°C° 0 mm 4 m/s 748 mmHg 86%
01:00 +10°C° 0 mm 4 m/s 748 mmHg 84%
02:00 +10°C° 0 mm 4 m/s 748 mmHg 82%
03:00 +9°C° 0 mm 3 m/s 748 mmHg 79%
04:00 +10°C° 0 mm 3 m/s 748 mmHg 77%
05:00 +11°C° 0 mm 3 m/s 748 mmHg 75%
06:00 +11°C° 0 mm 3 m/s 748 mmHg 73%
07:00 +13°C° 0 mm 4 m/s 748 mmHg 67%
08:00 +15°C° 0 mm 5 m/s 748 mmHg 62%
09:00 +17°C° 0 mm 5 m/s 748 mmHg 57%
10:00 +19°C° 0 mm 5 m/s 748 mmHg 53%
11:00 +20°C° 0 mm 5 m/s 748 mmHg 50%
12:00 +21°C° 0 mm 5 m/s 748 mmHg 47%
13:00 +20°C° 0 mm 5 m/s 748 mmHg 50%
14:00 +20°C° 0 mm 4 m/s 748 mmHg 54%
15:00 +20°C° 0 mm 4 m/s 748 mmHg 57%
16:00 +19°C° 0 mm 3 m/s 748 mmHg 59%
17:00 +19°C° 0 mm 3 m/s 748 mmHg 62%
18:00 +18°C° 0 mm 3 m/s 748 mmHg 64%
19:00 +17°C° 0.3 mm 3 m/s 748 mmHg 69%
20:00 +16°C° 0.3 mm 3 m/s 748 mmHg 74%
21:00 +14°C° 0.3 mm 3 m/s 748 mmHg 79%
22:00 +14°C° 0.2 mm 3 m/s 749 mmHg 81%
23:00 +14°C° 0.2 mm 2 m/s 749 mmHg 82%

Mâine, 10 Mai, Luni

Timp Temperatura Precipitaţii Vânt Presiune Umiditate
00:00 +14°C° 0.2 mm 2 m/s 749 mmHg 84%
01:00 +14°C° 0.1 mm 1 m/s 750 mmHg 86%
02:00 +13°C° 0.1 mm 1 m/s 750 mmHg 88%
03:00 +13°C° 0.1 mm 1 m/s 751 mmHg 91%
04:00 +13°C° 0 mm 1 m/s 751 mmHg 90%
05:00 +13°C° 0 mm 2 m/s 751 mmHg 90%
06:00 +13°C° 0 mm 2 m/s 752 mmHg 89%
07:00 +14°C° 0 mm 2 m/s 752 mmHg 85%
08:00 +15°C° 0 mm 2 m/s 753 mmHg 80%
09:00 +16°C° 0 mm 2 m/s 753 mmHg 75%
10:00 +16°C° 0 mm 3 m/s 753 mmHg 74%
11:00 +17°C° 0 mm 3 m/s 754 mmHg 73%
12:00 +17°C° 0 mm 4 m/s 754 mmHg 71%
13:00 +15°C° 0 mm 4 m/s 755 mmHg 73%
14:00 +14°C° 0 mm 5 m/s 755 mmHg 75%
15:00 +14°C° 0 mm 5 m/s 756 mmHg 77%
16:00 +13°C° 0 mm 5 m/s 756 mmHg 79%
17:00 +12°C° 0 mm 5 m/s 757 mmHg 81%
18:00 +10°C° 0 mm 5 m/s 757 mmHg 84%
19:00 +9°C° 0 mm 5 m/s 757 mmHg 85%
20:00 +10°C° 0 mm 4 m/s 758 mmHg 87%
21:00 +8°C° 0 mm 4 m/s 758 mmHg 88%
22:00 +8°C° 0 mm 4 m/s 758 mmHg 89%
23:00 +7°C° 0 mm 4 m/s 759 mmHg 89%

Poimâine, 11 Mai, Marţi

Timp Temperatura Precipitaţii Vânt Presiune Umiditate
00:00 +7°C° 0 mm 4 m/s 759 mmHg 90%
01:00 +6°C° 0 mm 4 m/s 759 mmHg 89%
02:00 +6°C° 0 mm 4 m/s 759 mmHg 89%
03:00 +6°C° 0 mm 4 m/s 759 mmHg 88%
04:00 +6°C° 0 mm 4 m/s 760 mmHg 87%
05:00 +7°C° 0 mm 5 m/s 760 mmHg 85%
06:00 +7°C° 0 mm 5 m/s 760 mmHg 83%
07:00 +8°C° 0 mm 5 m/s 760 mmHg 77%
08:00 +11°C° 0 mm 4 m/s 761 mmHg 72%
09:00 +12°C° 0 mm 4 m/s 761 mmHg 66%
10:00 +14°C° 0 mm 4 m/s 761 mmHg 61%
11:00 +16°C° 0 mm 3 m/s 761 mmHg 56%
12:00 +18°C° 0 mm 3 m/s 761 mmHg 52%
13:00 +18°C° 0 mm 3 m/s 761 mmHg 50%
14:00 +19°C° 0 mm 4 m/s 761 mmHg 48%
15:00 +19°C° 0 mm 4 m/s 760 mmHg 46%
16:00 +19°C° 0 mm 3 m/s 760 mmHg 51%
17:00 +18°C° 0 mm 3 m/s 761 mmHg 55%
18:00 +17°C° 0 mm 3 m/s 761 mmHg 59%
19:00 +16°C° 0 mm 3 m/s 761 mmHg 63%
20:00 +13°C° 0 mm 3 m/s 761 mmHg 66%
21:00 +11°C° 0 mm 3 m/s 761 mmHg 70%
22:00 +11°C° 0 mm 3 m/s 761 mmHg 72%
23:00 +10°C° 0 mm 3 m/s 761 mmHg 73%

12 Mai, Miercuri

Timp Temperatura Precipitaţii Vânt Presiune Umiditate
00:00 +9°C° 0 mm 2 m/s 761 mmHg 75%
01:00 +9°C° 0 mm 3 m/s 761 mmHg 76%
02:00 +9°C° 0 mm 3 m/s 761 mmHg 77%
03:00 +9°C° 0 mm 3 m/s 761 mmHg 78%
04:00 +10°C° 0 mm 3 m/s 761 mmHg 77%
05:00 +11°C° 0 mm 3 m/s 762 mmHg 75%
06:00 +12°C° 0 mm 3 m/s 762 mmHg 74%
07:00 +13°C° 0 mm 3 m/s 762 mmHg 67%
08:00 +15°C° 0 mm 4 m/s 762 mmHg 60%
09:00 +18°C° 0 mm 4 m/s 762 mmHg 53%
10:00 +19°C° 0 mm 4 m/s 762 mmHg 50%
11:00 +20°C° 0 mm 4 m/s 762 mmHg 46%
12:00 +21°C° 0 mm 3 m/s 762 mmHg 42%
13:00 +22°C° 0 mm 3 m/s 761 mmHg 41%
14:00 +22°C° 0 mm 3 m/s 761 mmHg 40%
15:00 +22°C° 0 mm 3 m/s 761 mmHg 39%
16:00 +22°C° 0 mm 3 m/s 761 mmHg 44%
17:00 +21°C° 0 mm 2 m/s 761 mmHg 48%
18:00 +20°C° 0 mm 2 m/s 761 mmHg 53%
19:00 +18°C° 0 mm 2 m/s 760 mmHg 55%
20:00 +16°C° 0 mm 2 m/s 760 mmHg 58%
21:00 +15°C° 0 mm 2 m/s 760 mmHg 60%
22:00 +14°C° 0 mm 2 m/s 760 mmHg 62%
23:00 +13°C° 0 mm 2 m/s 760 mmHg 63%

13 Mai, Joi

Timp Temperatura Precipitaţii Vânt Presiune Umiditate
00:00 +13°C° 0 mm 2 m/s 760 mmHg 65%
01:00 +12°C° 0 mm 2 m/s 760 mmHg 66%
02:00 +12°C° 0 mm 2 m/s 760 mmHg 67%
03:00 +12°C° 0 mm 2 m/s 760 mmHg 68%
04:00 +12°C° 0 mm 2 m/s 760 mmHg 67%
05:00 +13°C° 0 mm 2 m/s 760 mmHg 66%
06:00 +14°C° 0 mm 2 m/s 760 mmHg 65%
07:00 +16°C° 0 mm 3 m/s 760 mmHg 60%
08:00 +18°C° 0 mm 3 m/s 760 mmHg 54%
09:00 +20°C° 0 mm 4 m/s 760 mmHg 49%
10:00 +21°C° 0 mm 4 m/s 760 mmHg 45%
11:00 +22°C° 0 mm 4 m/s 760 mmHg 41%
12:00 +25°C° 0 mm 4 m/s 759 mmHg 38%
13:00 +25°C° 0 mm 4 m/s 759 mmHg 37%
14:00 +25°C° 0 mm 3 m/s 759 mmHg 37%
15:00 +26°C° 0 mm 3 m/s 759 mmHg 37%
16:00 +25°C° 0 mm 3 m/s 758 mmHg 44%
17:00 +24°C° 0 mm 2 m/s 758 mmHg 50%
18:00 +23°C° 0 mm 2 m/s 758 mmHg 57%
19:00 +20°C° 0 mm 2 m/s 758 mmHg 59%
20:00 +19°C° 0 mm 2 m/s 758 mmHg 61%
21:00 +18°C° 0 mm 2 m/s 758 mmHg 63%
22:00 +17°C° 0 mm 2 m/s 758 mmHg 64%
23:00 +17°C° 0 mm 2 m/s 758 mmHg 66%

14 Mai, Vineri

Timp Temperatura Precipitaţii Vânt Presiune Umiditate
00:00 +16°C° 0 mm 2 m/s 758 mmHg 67%
01:00 +16°C° 0 mm 2 m/s 758 mmHg 69%
02:00 +16°C° 0 mm 2 m/s 758 mmHg 71%
03:00 +15°C° 0 mm 1 m/s 758 mmHg 73%
04:00 +16°C° 0.1 mm 1 m/s 758 mmHg 72%
05:00 +18°C° 0.1 mm 1 m/s 758 mmHg 72%
06:00 +19°C° 0.1 mm 1 m/s 758 mmHg 72%
07:00 +19°C° 0 mm 2 m/s 758 mmHg 64%
08:00 +21°C° 0 mm 3 m/s 758 mmHg 57%
09:00 +23°C° 0 mm 4 m/s 758 mmHg 49%
10:00 +25°C° 0 mm 4 m/s 758 mmHg 45%
11:00 +26°C° 0 mm 4 m/s 757 mmHg 40%
12:00 +27°C° 0 mm 5 m/s 757 mmHg 36%
13:00 +27°C° 0 mm 5 m/s 757 mmHg 36%
14:00 +27°C° 0 mm 5 m/s 757 mmHg 36%
15:00 +27°C° 0 mm 5 m/s 757 mmHg 36%
16:00 +26°C° 0 mm 4 m/s 756 mmHg 42%
17:00 +25°C° 0 mm 4 m/s 756 mmHg 47%
18:00 +24°C° 0 mm 3 m/s 756 mmHg 53%
19:00 +22°C° 0 mm 3 m/s 756 mmHg 56%
20:00 +20°C° 0 mm 3 m/s 755 mmHg 58%
21:00 +19°C° 0 mm 2 m/s 755 mmHg 61%
22:00 +18°C° 0 mm 2 m/s 755 mmHg 62%
23:00 +18°C° 0 mm 2 m/s 755 mmHg 63%
Arată mai mult

Formular de consimțământ

Meteoprog și furnizorii noștri de servicii pot stoca și accesa date personale, precum cookies, identificatori de dispozitiv sau alte tehnologii similare pe dispozitivul dumneavoastră și procesa astfel de date pentru a personaliza conținutul și reclamele, dar și pentru a oferi caracteristici de social media și pentru a analiza traficul.

  • Stocarea și/sau accesarea informațiilor pe dispozitivul dumneavoastră

    Cookies, identificatori de dispozitiv sau alte informații pot fi stocate sau accesate pe dispozitiv în scopurile indicate mai sus.

  • Reclame și conținut personalizat, evaluarea reclamelor și a conținutului, informații despre audiențe și dezvoltarea produselor

    Reclamele și conținutul pot fi personalizate pe baza unui profil. Pot fi adăugate date suplimentare pentru a personaliza mai bine reclamele și conținutul. Performanța reclamelor și conținutului poate fi măsurată. Pot fi obținute informații despre utilizatorii care au văzut reclamele și conținutul. Aceste date pot fi utilizate pentru a dezvolta sau îmbunătăți experiența utilizatorilor, sistemele și software-ul.

Dând clic pe ‘Sunt de acord’, permiteți utilizarea cookie-urilor menționate, a identificatorilor de dispozitiv, balizelor web sau altor tehnologii similare. Setările pot fi modificate din browser-ul dispozitivului dumneavoastră.

În anumite scopuri, interesele legitime pot prima asupra consimțământului. Puteți citi mai multe informații în acest sens în Politica privind Confidențialitatea Datelor și Cookie.